Weather in Krupki

Belarus     54˚19′02″N   29˚08′24″E
temp.,
°C
wind,
m/s
gust,
m/s
humid.,
%
clouds,
%
prec.,
mm/h
press.,
hPa
HPBL,
m
30 november, mon
mon3000:00−1˚sse3696100 0.1 1020377
03:00−1˚se379797 0.3 1021334
06:00−1˚sse368895 0.1 1021582
09:00−2˚sse369596 0.2 1022348
12:00s478797 0.1 1023645
15:00ssw478799 0.3 1023683
18:00−1˚ssw379199 0.1 1024513
21:00−2˚sw378798 0.3 1025475
1 december, tue
tue100:00−2˚ssw368691 0.0 1025462
03:00−3˚ssw259693 0.1 1026213
06:00−4˚ssw259750 0.0 1027171
09:00−4˚ssw259633 0.0 1028157
12:00−2˚ssw24851 0.0 1029294
15:00−1˚ssw12811 0.0 1030384
18:00−3˚sse12910 0.0 103023
21:00−4˚se22940 0.0 103158
2 december, wed
wed200:00−4˚se12930 0.0 103230
03:00−4˚e22910 0.0 103339
06:00−4˚e238912 0.0 103271
09:00−5˚e259114 0.0 1031119
12:00−2˚e359239 0.0 1031249
15:00e369268 0.1 1030483
18:00−1˚ese3789100 0.1 1029520
21:00−3˚ese489099 0.1 1029476
3 december, thu
thu300:00−3˚ese3793100 0.0 1028403
03:00−3˚se389396 0.1 1028466
06:00−2˚se379095 0.1 1027635
09:00−3˚se489393 0.2 1027431
12:00−2˚sse478891 0.1 1027538
15:00−2˚sse478995 0.1 1026539
18:00−2˚se4789100 0.0 1026557
21:00−1˚sse4889100 0.0 1025623
4 december, fri
fri400:00−1˚sse3794100 0.1 1025496
03:00−2˚ese4896100 0.3 1024344
06:00se5109399 0.1 1023574
09:00se4109799 0.3 1023580
12:00+1˚se51196100 0.0 1023642
15:00+1˚se61190100 0.1 1023540
18:00+1˚se61292100 0.0 1023594
21:00se61290100 0.0 1023602